Wenatchee, WA

4:35 AM PDT on August 22, 2017 (GMT -0700)
Pangborn Memorial

Weather History for KEAT - September, 2011

Change the Weather History Date:

Saturday, September 24, 2011

  Actual Average Record
Temperature  
Mean Temperature 71 °F 54 °F  
Max Temperature 87 °F 69 °F 90 °F (2009)
Min Temperature 55 °F 40 °F 32 °F (2016)
Degree Days  
Heating Degree Days 0 11  
Month to date heating degree days 17 172  
Since 1 July heating degree days 21 283  
Cooling Degree Days 6 0  
Month to date cooling degree days 134 14  
Year to date cooling degree days 631 247  
Growing Degree Days 23 (Base 50)    
Moisture  
Dew Point 47 °F    
Average Humidity 48    
Maximum Humidity 72    
Minimum Humidity 23    
Precipitation  
Precipitation T in 0.02 in 0.09 in (1982)
Month to date precipitation T 0.49  
Year to date precipitation 5.29 10.91  
Snow  
Snow 0.00 in 0.00 in - ()
Month to date snowfall 0.0  
Since 1 July snowfall 0.0  
Since 1 September snowfall 0.0  
Snow Depth -    
Sea Level Pressure  
Sea Level Pressure 29.74 in    
Wind  
Wind Speed 6 mph (NW)    
Max Wind Speed 16 mph    
Max Gust Speed 28 mph    
Visibility 10 miles    
Events      
T = Trace of Precipitation, MM = Missing Value Source: NWS Daily Summary

Daily Weather History Graph

Daily Weather History Graph

Search for Another Location

Airport or City:

Trip Planner

Search our weather history database for the weather conditions in past years. The results will help you decide how hot, cold, wet, or windy it might be!

Date:

Astronomy

Sep. 24, 2011 Rise Set
Actual Time 6:50 AM PDT 6:54 PM PDT
Civil Twilight 6:19 AM PDT 7:25 PM PDT
Nautical Twilight 5:43 AM PDT 8:01 PM PDT
Astronomical Twilight 5:06 AM PDT 8:38 PM PDT
Moon 3:20 AM PDT (9/24) 5:12 PM PDT (9/24)
Length of Visible Light 13h 05m
Length of Day
12h 04m
Waning Crescent, 10% of the Moon is Illuminated
Sep 24
Waning Crescent
Sep 27
New
Oct 3
First Quarter
Oct 11
Full
Oct 19
Last Quarter

Hourly Weather History & Observations

Time (PDT) Temp. Dew Point Humidity Pressure Visibility Wind Dir Wind Speed Gust Speed Precip Events Conditions
12:55 AM 69.1 °F 48.0 °F 47% 29.88 in 10.0 mi NNW 5.8 mph - N/A   Clear
1:55 AM 66.9 °F 48.0 °F 51% 29.88 in 10.0 mi NW 9.2 mph - N/A   Clear
2:55 AM 64.0 °F 46.9 °F 54% 29.87 in 10.0 mi West 10.4 mph - N/A   Clear
3:55 AM 64.0 °F 46.9 °F 54% 29.86 in 10.0 mi WNW 10.4 mph - N/A   Clear
4:55 AM 63.0 °F 46.0 °F 54% 29.86 in 10.0 mi NW 12.7 mph - N/A   Clear
5:55 AM 60.1 °F 46.9 °F 62% 29.86 in 10.0 mi WNW 8.1 mph 21.9 mph N/A   Clear
8:55 AM 61.0 °F 48.0 °F 62% 29.86 in 10.0 mi WNW 3.5 mph - N/A   Clear
9:55 AM 64.9 °F 48.0 °F 54% 29.85 in 10.0 mi Variable 3.5 mph - N/A   Clear
10:55 AM 68.0 °F 46.9 °F 47% 29.83 in 10.0 mi WNW 4.6 mph - N/A   Clear
11:55 AM 72.0 °F 46.9 °F 41% 29.80 in 10.0 mi SW 3.5 mph - N/A   Clear
12:55 PM 75.0 °F 46.9 °F 37% 29.76 in 10.0 mi Variable 4.6 mph - N/A   Clear
1:55 PM 81.0 °F 46.9 °F 30% 29.72 in 10.0 mi Calm Calm - N/A   Clear
2:55 PM 84.0 °F 46.0 °F 26% 29.68 in 10.0 mi Calm Calm - N/A   Clear
3:55 PM 86.0 °F 45.0 °F 24% 29.64 in 10.0 mi East 5.8 mph - N/A   Clear
4:55 PM 86.0 °F 46.9 °F 26% 29.61 in 10.0 mi ESE 6.9 mph - N/A   Clear
5:55 PM 84.0 °F 45.0 °F 25% 29.58 in 10.0 mi East 6.9 mph - N/A   Clear
6:55 PM 79.0 °F 48.9 °F 35% 29.58 in 10.0 mi NNE 4.6 mph - N/A   Clear
9:55 PM 78.1 °F 45.0 °F 31% 29.58 in 10.0 mi NNW 11.5 mph - N/A   Clear
10:55 PM 75.9 °F 45.0 °F 33% 29.55 in 10.0 mi WNW 11.5 mph - N/A   Clear
11:55 PM 73.9 °F 51.1 °F 45% 29.55 in 10.0 mi WNW 3.5 mph - 0.00 in   Scattered Clouds